Regional Weather Roundup
Issued by NWS

Home | Current Version | Previous Version | Graphics & Text | Print | Product List | Glossary On
Versions: 1 2 3 4 5 6 7 8 9 10 11 12 13 14 15 16 17 18 19 20 21 22 23 24 25 26 27 28 29 30 31 32 33 34 35 36 37 38 39 40 41 42 43 44 45 46 47 48 49 50
000
ASUS43 KIND 301009
RWRIN

WEATHER ROUNDUP FOR INDIANA
NATIONAL WEATHER SERVICE INDIANAPOLIS IN
600 AM EDT TUE JUN 30 2015

NOTE: "FAIR" INDICATES FEW OR NO CLOUDS BELOW 12,000 FEET WITH NO
SIGNIFICANT WEATHER AND/OR OBSTRUCTIONS TO VISIBILITY.

* - STATION DOES NOT REPORT WEATHER SUCH AS PRECIPITATION OR FOG.

+ - STATION NOT QUALITY CONTROLLED BY THE NATIONAL WEATHER SERVICE.
    USE DATA WITH CAUTION...ESPECIALLY DEWPOINT AND RELATIVE
    HUMIDITY OBSERVATIONS.

INZ001>003-010>013-019-020-301100-
NORTHWEST INDIANA

CITY           SKY/WX    TMP DP  RH WIND       PRES   REMARKS
GARY /AIRPORT/ MOCLDY    64  64 100 CALM      29.77S FOG
KNOX *+        CLOUDY    63  63 100 CALM      29.77S
LA PORTE +     CLOUDY   N/A N/A N/A CALM      29.79S FOG
MICHIGAN CITY+ LGT RAIN  63  63 100 CALM      29.77F
MONTICELLO +   MOCLDY    63  63 100 CALM      29.77S
RENSSELAER +   TSTM      64  64 100 SW9       29.79S
VALPARAISO     CLOUDY    64  63  96 CALM      29.78S FOG

$$

LMZ046-743>745-301100-
SOUTHERN LAKE MICHIGAN

STATION/POSITION TIME  TEMP    WIND        PRES    WAVE
                       AIR SEA DIR/SP/G            HT
                 (UTC) (F)     (DEG/KT/KT) (MB)    (FT)
BURNS HARBOR     1000   64     190/  5/  6 1008.5S
MICHIGAN CITY    1000   64     130/  6/  8   N/A
5NW MICH CITY    1000   64 65  180/  8/  8   N/A     0

$$

INZ004-005-014>016-021>024-301100-
NORTH CENTRAL INDIANA

CITY           SKY/WX    TMP DP  RH WIND       PRES   REMARKS
GOSHEN         CLOUDY    62  60  93 CALM      29.79S FOG
LOGANSPORT +   FOG       61  59  94 CALM      29.79S VSB 1/4
PERU/GRISSOM   FOG       62  61  97 S2        29.78S VSB 1/4
ROCHESTER +    FOG       64  64 100 CALM      29.79S VSB 1/2
SOUTH BEND     CLOUDY    63  61  93 SE5       29.79S FOG
WARSAW +         N/A     59  59 100 CALM      29.80R FOG

$$

INZ006>009-017-018-025>027-301100-
NORTHEAST INDIANA

CITY           SKY/WX    TMP DP  RH WIND       PRES   REMARKS
ANGOLA *+      CLOUDY    61  50  67 CALM      29.80S
AUBURN +       FOG       59  57  94 CALM      29.81S VSB 3/4
FORT WAYNE     MOCLDY    61  60  97 CALM      29.80F FOG
HUNTINGTON +   MOCLDY    58  57  97 CALM      29.79S FOG

$$

INZ028-029-035-036-043>045-051>053-301100-
WEST CENTRAL INDIANA

CITY           SKY/WX    TMP DP  RH WIND       PRES   REMARKS
CRAWFORDSVL +  PTCLDY    62  61  97 SW7       29.82R
GREENCASTLE +  CLOUDY    63  59  88 CALM      29.82R
LAFAYETTE      MOCLDY    63  62  97 SW7       29.79R
TERRE HAUTE    MOCLDY    65  62  90 SW5       29.83F

$$

INZ030>032-037>040-046>048-054>057-064-065-301100-
CENTRAL INDIANA

CITY           SKY/WX    TMP DP  RH WIND       PRES   REMARKS
CP ATTERBURY + CLEAR     63  61  94 SW5       29.83S
FRANKFORT +    CLEAR    N/A N/A N/A SW8       29.82R
GREENWOOD *+   MOCLDY    64  63  94 W3        29.83S
INDIANAPOLIS   LGT RAIN  65  62  90 SW9       29.81R
-EAGLE CREEK   PTCLDY    65  63  93 SW5       29.80F
KOKOMO *+      CLOUDY    63  61  94 S5        29.79S VSB<1/4
MARION +       FOG       59  59  99 S3        29.80S VSB 1/4
MT COMFORT *+  CLEAR     64 N/A N/A SW5       29.81S
SHELBYVILLE    CLEAR     66  63  90 SW6       29.81S
ZIONSVILLE +   PTCLDY    64  61  90 SW3       29.81S

$$

INZ033-034-041-042-049-050-058-059-301100-
EAST CENTRAL INDIANA

CITY           SKY/WX    TMP DP  RH WIND       PRES   REMARKS
MUNCIE         CLOUDY    64  62  93 W6        29.80S FOG

$$

INZ060-061-067>069-081>083-085>088-301100-
SOUTHWEST INDIANA

CITY           SKY/WX    TMP DP  RH WIND       PRES   REMARKS
EVANSVILLE     CLOUDY    70  65  84 W3        29.87S
HUNTINGBURG *+ CLOUDY    64  61  88 S3        29.87R
WASHINGTON +   PTCLDY    66  62  87 SW6       29.85R

$$

INZ062-063-066-070>080-084-089>092-301100-
SOUTH CENTRAL AND SOUTHEAST INDIANA

CITY           SKY/WX    TMP DP  RH WIND       PRES   REMARKS
BLOOMINGTON    PTCLDY    65  63  93 SW7       29.85S
MADISON *+     CLEAR     64  61  88 S5        29.88S
NORTH VERNON + CLEAR     64  64 100 CALM      29.85R FOG
SEYMOUR +      CLEAR     66  64  94 SW8       29.85R

$$




USA.gov is the U.S. government's official web portal to all federal, state and local government web resources and services.